Location: Gaast
(52.9002°N, 5.8891°E)
Time: 10:27:27
(UTC+00:00)

USA 215 - Pass Details

Date: 18 November 2025
Orbit: 1101 x 1106 km, 123.0° (Epoch: 10 December)

Event Time Altitude Azimuth Distance (km) Brightness Sun altitude
Rises 16:02:48 0° 116° (ESE) 3,918 5.8 -4.2°
Reaches altitude 10° 16:05:16 10° 117° (ESE) 2,963 5.2 -4.5°
Maximum altitude 16:11:51 86° 206° (SSW) 1,115 3.4 -5.4°
Drops below altitude 10° 16:18:27 10° 296° (WNW) 2,974 6.1 -6.3°
Sets 16:20:56 0° 297° (WNW) 3,934 6.8 -6.6°
